| time (UTC) | temp F | wind direction | speed MPH | gust MPH | rain 1hr in | rain 24hr in | rain mn in | humidity % | barometer mb |
| 20260904155756 | 79 | 206 | 0.0 | 1.0 | 0.00 | 0.00 | 0.00 | 61 | 1009.4 |
| 20260904155259 | 79 | 206 | 0.0 | 3.0 | 0.00 | 0.00 | 0.00 | 62 | 1009.5 |
| 20260904154817 | 79 | 206 | 0.0 | 3.0 | 0.00 | 0.00 | 0.00 | 66 | 1009.5 |
| 20260904154304 | 79 | 81 | 0.0 | 0.0 | 0.00 | 0.00 | 0.00 | 68 | 1009.5 |
| 20260904153749 | 79 | 80 | 0.0 | 0.0 | 0.00 | 0.00 | 0.00 | 68 | 1009.6 |
| 20260904153255 | 78 | 81 | 0.0 | 0.0 | 0.00 | 0.00 | 0.00 | 66 | 1009.6 |
| 20260904152757 | 78 | 57 | 0.0 | 0.0 | 0.00 | 0.00 | 0.00 | 69 | 1009.6 |
| 20260904152306 | 78 | 57 | 0.0 | 0.0 | 0.00 | 0.00 | 0.00 | 71 | 1009.9 |
| 20260904151748 | 77 | 57 | 0.0 | 0.0 | 0.00 | 0.00 | 0.00 | 71 | 1009.9 |
| 20260904151316 | 77 | 57 | 0.0 | 0.0 | 0.00 | 0.00 | 0.00 | 73 | 1009.9 |
| 20260904150801 | 76 | 57 | 0.0 | 0.0 | 0.00 | 0.00 | 0.00 | 77 | 1009.9 |
| 20260904150246 | 76 | 57 | 0.0 | 0.0 | 0.00 | 0.00 | 0.00 | 81 | 1009.9 |
| 20260904145815 | 75 | 57 | 0.0 | 0.0 | 0.00 | 0.00 | 0.00 | 81 | 1009.9 |
| 20260904145300 | 75 | 57 | 0.0 | 0.0 | 0.00 | 0.00 | 0.00 | 83 | 1009.9 |
| 20260904144807 | 75 | 57 | 0.0 | 0.0 | 0.00 | 0.00 | 0.00 | 83 | 1009.9 |
| 20260904144254 | 74 | 57 | 0.0 | 0.0 | 0.00 | 0.00 | 0.00 | 84 | 1009.9 |
| 20260904143801 | 74 | 57 | 0.0 | 0.0 | 0.00 | 0.00 | 0.00 | 86 | 1010.1 |
| 20260904143326 | 73 | 57 | 0.0 | 0.0 | 0.00 | 0.00 | 0.00 | 88 | 1010.1 |
| 20260904142753 | 73 | 57 | 0.0 | 0.0 | 0.00 | 0.00 | 0.00 | 89 | 1010.1 |
| 20260904142256 | 72 | 57 | 0.0 | 0.0 | 0.00 | 0.00 | 0.00 | 92 | 1010.1 |
| 20260904141825 | 72 | 42 | 0.0 | 0.0 | 0.00 | 0.00 | 0.00 | 93 | 1010.1 |
| 20260904141253 | 71 | 42 | 0.0 | 0.0 | 0.00 | 0.00 | 0.00 | 95 | 1010.1 |
| 20260904140754 | 70 | 42 | 0.0 | 0.0 | 0.00 | 0.00 | 0.00 | 95 | 1010.1 |
| 20260904140305 | 70 | 40 | 0.0 | 0.0 | 0.00 | 0.00 | 0.00 | 96 | 1010.1 |
| 20260904135751 | 69 | 40 | 0.0 | 0.0 | 0.00 | 0.00 | 0.00 | 96 | 1010.1 |
| 20260904135255 | 69 | 43 | 0.0 | 0.0 | 0.00 | 0.00 | 0.00 | 97 | 1010.2 |
| 20260904134801 | 69 | 43 | 0.0 | 0.0 | 0.00 | 0.00 | 0.00 | 97 | 1010.2 |
| 20260904134303 | 68 | 36 | 0.0 | 0.0 | 0.00 | 0.00 | 0.00 | 97 | 1010.2 |
| 20260904133747 | 68 | 36 | 0.0 | 0.0 | 0.00 | 0.00 | 0.00 | 97 | 1010.3 |
| 20260904133301 | 68 | 36 | 0.0 | 0.0 | 0.00 | 0.00 | 0.00 | 97 | 1010.3 |
| 20260904132800 | 67 | 36 | 0.0 | 0.0 | 0.00 | 0.00 | 0.00 | 97 | 1010.3 |
| 20260904132306 | 67 | 36 | 0.0 | 0.0 | 0.00 | 0.00 | 0.00 | 97 | 1010.2 |
| 20260904131759 | 66 | 36 | 0.0 | 0.0 | 0.00 | 0.00 | 0.00 | 97 | 1010.2 |
| 20260904131254 | 66 | 36 | 0.0 | 0.0 | 0.00 | 0.00 | 0.00 | 98 | 1010.2 |
| 20260904130749 | 66 | 36 | 0.0 | 0.0 | 0.00 | 0.00 | 0.00 | 97 | 1010.2 |
| 20260904130300 | 65 | 36 | 0.0 | 0.0 | 0.00 | 0.00 | 0.00 | 97 | 1010.2 |
| 20260904125801 | 65 | 36 | 0.0 | 0.0 | 0.00 | 0.00 | 0.00 | 97 | 1010.2 |
| 20260904125259 | 65 | 36 | 0.0 | 0.0 | 0.00 | 0.00 | 0.00 | 97 | 1010.2 |
| 20260904124801 | 64 | 36 | 0.0 | 0.0 | 0.00 | 0.00 | 0.00 | 97 | 1010.2 |
| 20260904124259 | 64 | 36 | 0.0 | 0.0 | 0.00 | 0.00 | 0.00 | 97 | 1010.2 |
| 20260904123759 | 64 | 36 | 0.0 | 0.0 | 0.00 | 0.00 | 0.00 | 97 | 1010.3 |
| 20260904123302 | 64 | 36 | 0.0 | 0.0 | 0.00 | 0.00 | 0.00 | 97 | 1010.3 |
| 20260904122749 | 63 | 36 | 0.0 | 0.0 | 0.00 | 0.00 | 0.00 | 97 | 1010.3 |
| 20260904122306 | 63 | 36 | 0.0 | 0.0 | 0.00 | 0.00 | 0.00 | 97 | 1010.1 |
| 20260904121749 | 62 | 36 | 0.0 | 0.0 | 0.00 | 0.00 | 0.00 | 97 | 1010.1 |
| 20260904121255 | 62 | 36 | 0.0 | 1.0 | 0.00 | 0.00 | 0.00 | 97 | 1010.1 |
| 20260904120745 | 62 | 36 | 0.0 | 1.0 | 0.00 | 0.00 | 0.00 | 96 | 1009.9 |
| 20260904120314 | 61 | 36 | 0.0 | 1.0 | 0.00 | 0.00 | 0.00 | 96 | 1009.9 |
| 20260904115804 | 61 | 36 | 0.0 | 1.0 | 0.00 | 0.00 | 0.00 | 96 | 1009.9 |
| 20260904115254 | 61 | 36 | 0.0 | 0.0 | 0.00 | 0.00 | 0.00 | 96 | 1009.7 |
| 20260904114800 | 61 | 36 | 0.0 | 0.0 | 0.00 | 0.00 | 0.00 | 96 | 1009.7 |
| 20260904114250 | 61 | 36 | 0.0 | 0.0 | 0.00 | 0.00 | 0.00 | 96 | 1009.7 |
| 20260904113751 | 61 | 36 | 0.0 | 0.0 | 0.00 | 0.00 | 0.00 | 95 | 1009.6 |
| 20260904113256 | 61 | 36 | 0.0 | 0.0 | 0.00 | 0.00 | 0.00 | 95 | 1009.6 |
| 20260904112807 | 61 | 36 | 0.0 | 0.0 | 0.00 | 0.00 | 0.00 | 95 | 1009.6 |
| 20260904112256 | 61 | 36 | 0.0 | 0.0 | 0.00 | 0.00 | 0.00 | 95 | 1009.8 |
| 20260904111800 | 61 | 36 | 0.0 | 0.0 | 0.00 | 0.00 | 0.00 | 95 | 1009.8 |
| 20260904111254 | 61 | 36 | 0.0 | 0.0 | 0.00 | 0.00 | 0.00 | 95 | 1009.8 |
| 20260904110758 | 61 | 36 | 0.0 | 0.0 | 0.00 | 0.00 | 0.00 | 95 | 1009.7 |
| 20260904110301 | 61 | 36 | 0.0 | 0.0 | 0.00 | 0.00 | 0.00 | 95 | 1009.7 |
| 20260904105823 | 61 | 36 | 0.0 | 0.0 | 0.00 | 0.00 | 0.00 | 95 | 1009.7 |
| 20260904105307 | 61 | 36 | 0.0 | 0.0 | 0.00 | 0.00 | 0.00 | 95 | 1009.8 |
| 20260904104756 | 61 | 36 | 0.0 | 0.0 | 0.00 | 0.00 | 0.00 | 95 | 1009.8 |
| 20260904104259 | 61 | 36 | 0.0 | 0.0 | 0.00 | 0.00 | 0.00 | 95 | 1009.8 |
| 20260904103807 | 61 | 36 | 0.0 | 0.0 | 0.00 | 0.00 | 0.00 | 95 | 1009.8 |
| 20260904103315 | 61 | 36 | 0.0 | 0.0 | 0.00 | 0.00 | 0.00 | 95 | 1009.8 |
| 20260904102804 | 61 | 36 | 0.0 | 0.0 | 0.00 | 0.00 | 0.00 | 95 | 1009.8 |
| 20260904102251 | 61 | 36 | 0.0 | 0.0 | 0.00 | 0.00 | 0.00 | 95 | 1009.5 |
| 20260904101758 | 62 | 36 | 0.0 | 0.0 | 0.00 | 0.00 | 0.00 | 95 | 1009.5 |
| 20260904101323 | 62 | 36 | 0.0 | 0.0 | 0.00 | 0.00 | 0.00 | 95 | 1009.5 |
| 20260904100751 | 62 | 36 | 0.0 | 0.0 | 0.00 | 0.00 | 0.00 | 95 | 1009.4 |
| 20260904100253 | 62 | 36 | 0.0 | 0.0 | 0.00 | 0.00 | 0.00 | 95 | 1009.4 |
| 20260904095802 | 62 | 36 | 0.0 | 0.0 | 0.00 | 0.00 | 0.00 | 95 | 1009.4 |
| 20260904095250 | 62 | 36 | 0.0 | 0.0 | 0.00 | 0.01 | 0.00 | 95 | 1009.4 |
| 20260904094753 | 62 | 36 | 0.0 | 0.0 | 0.00 | 0.01 | 0.00 | 95 | 1009.4 |
| 20260904094304 | 62 | 36 | 0.0 | 0.0 | 0.00 | 0.01 | 0.00 | 95 | 1009.4 |
| 20260904093752 | 62 | 36 | 0.0 | 0.0 | 0.00 | 0.01 | 0.00 | 95 | 1009.4 |
| 20260904093317 | 62 | 36 | 0.0 | 0.0 | 0.00 | 0.01 | 0.00 | 95 | 1009.4 |
| 20260904092801 | 63 | 36 | 0.0 | 0.0 | 0.00 | 0.01 | 0.00 | 95 | 1009.4 |
| 20260904092307 | 63 | 36 | 0.0 | 0.0 | 0.00 | 0.01 | 0.00 | 95 | 1009.1 |
| 20260904091753 | 63 | 36 | 0.0 | 0.0 | 0.00 | 0.01 | 0.00 | 95 | 1009.1 |
| 20260904091302 | 63 | 36 | 0.0 | 0.0 | 0.00 | 0.01 | 0.00 | 95 | 1009.1 |
| 20260904090749 | 63 | 36 | 0.0 | 0.0 | 0.00 | 0.01 | 0.00 | 95 | 1009.2 |
| 20260904090315 | 63 | 36 | 0.0 | 0.0 | 0.00 | 0.01 | 0.00 | 95 | 1009.2 |
| 20260904085751 | 63 | 36 | 0.0 | 0.0 | 0.00 | 0.01 | 0.00 | 95 | 1009.2 |
| 20260904085259 | 63 | 36 | 0.0 | 0.0 | 0.00 | 0.01 | 0.00 | 95 | 1009.0 |
| 20260904084802 | 63 | 36 | 0.0 | 0.0 | 0.00 | 0.01 | 0.00 | 95 | 1009.0 |
| 20260904084307 | 64 | 36 | 0.0 | 0.0 | 0.00 | 0.01 | 0.00 | 95 | 1009.0 |
| 20260904083752 | 64 | 36 | 0.0 | 0.0 | 0.00 | 0.01 | 0.00 | 95 | 1009.0 |
| 20260904083318 | 64 | 36 | 0.0 | 0.0 | 0.00 | 0.01 | 0.00 | 95 | 1009.0 |
| 20260904082821 | 64 | 36 | 0.0 | 0.0 | 0.00 | 0.01 | 0.00 | 95 | 1009.0 |
| 20260904082306 | 64 | 36 | 0.0 | 0.0 | 0.00 | 0.01 | 0.00 | 95 | 1009.0 |
| 20260904081749 | 64 | 36 | 0.0 | 0.0 | 0.00 | 0.01 | 0.00 | 95 | 1009.0 |
| 20260904081257 | 64 | 36 | 0.0 | 0.0 | 0.00 | 0.01 | 0.00 | 95 | 1009.0 |
| 20260904080827 | 64 | 36 | 0.0 | 0.0 | 0.00 | 0.01 | 0.00 | 95 | 1009.2 |
| 20260904080250 | 64 | 36 | 0.0 | 0.0 | 0.00 | 0.01 | 0.00 | 95 | 1009.2 |
| 20260904075757 | 64 | 36 | 0.0 | 0.0 | 0.00 | 0.01 | 0.00 | 95 | 1009.2 |
| 20260904075306 | 64 | 36 | 0.0 | 0.0 | 0.00 | 0.02 | 0.00 | 95 | 1009.4 |
| 20260904074807 | 64 | 36 | 0.0 | 0.0 | 0.00 | 0.02 | 0.00 | 95 | 1009.4 |
| 20260904074328 | 64 | 36 | 0.0 | 0.0 | 0.00 | 0.02 | 0.00 | 95 | 1009.4 |
| 20260904073815 | 64 | 36 | 0.0 | 0.0 | 0.00 | 0.02 | 0.00 | 95 | 1009.5 |
| 20260904073300 | 64 | 36 | 0.0 | 0.0 | 0.00 | 0.02 | 0.00 | 95 | 1009.5 |
| 20260904072806 | 64 | 36 | 0.0 | 0.0 | 0.00 | 0.02 | 0.00 | 95 | 1009.5 |
| 20260904072254 | 64 | 36 | 0.0 | 0.0 | 0.00 | 0.02 | 0.00 | 95 | 1009.8 |
| 20260904071801 | 64 | 36 | 0.0 | 0.0 | 0.00 | 0.02 | 0.00 | 95 | 1009.8 |
| 20260904071308 | 64 | 36 | 0.0 | 0.0 | 0.00 | 0.02 | 0.00 | 94 | 1009.8 |
| 20260904070755 | 64 | 36 | 0.0 | 0.0 | 0.00 | 0.02 | 0.00 | 94 | 1009.7 |
| 20260904070300 | 65 | 36 | 0.0 | 0.0 | 0.00 | 0.02 | 0.00 | 94 | 1009.7 |
| 20260904065805 | 65 | 36 | 0.0 | 0.0 | 0.00 | 0.02 | 0.00 | 94 | 1009.7 |
| 20260904065254 | 65 | 36 | 0.0 | 0.0 | 0.00 | 0.02 | 0.00 | 94 | 1009.6 |
| 20260904064804 | 65 | 36 | 0.0 | 0.0 | 0.00 | 0.02 | 0.00 | 94 | 1009.6 |
| 20260904064249 | 65 | 36 | 0.0 | 0.0 | 0.00 | 0.02 | 0.00 | 94 | 1009.6 |
| 20260904063758 | 65 | 36 | 0.0 | 0.0 | 0.00 | 0.02 | 0.00 | 94 | 1009.7 |
| 20260904063325 | 65 | 36 | 0.0 | 0.0 | 0.00 | 0.02 | 0.00 | 94 | 1009.7 |
| 20260904062824 | 65 | 36 | 0.0 | 0.0 | 0.00 | 0.02 | 0.00 | 94 | 1009.7 |
| 20260904062308 | 65 | 36 | 0.0 | 0.0 | 0.00 | 0.02 | 0.00 | 94 | 1009.9 |
| 20260904061752 | 65 | 36 | 0.0 | 0.0 | 0.00 | 0.02 | 0.00 | 94 | 1009.9 |
| 20260904061317 | 65 | 36 | 0.0 | 0.0 | 0.00 | 0.02 | 0.00 | 94 | 1009.9 |
| 20260904060808 | 65 | 36 | 0.0 | 0.0 | 0.00 | 0.02 | 0.00 | 94 | 1009.9 |
| 20260904060255 | 65 | 36 | 0.0 | 0.0 | 0.00 | 0.02 | 0.00 | 94 | 1009.9 |
| 20260904055800 | 66 | 36 | 0.0 | 0.0 | 0.00 | 0.02 | 0.00 | 94 | 1009.9 |
| 20260904055307 | 66 | 36 | 0.0 | 0.0 | 0.00 | 0.02 | 0.00 | 94 | 1010.0 |
| 20260904054818 | 66 | 36 | 0.0 | 0.0 | 0.00 | 0.02 | 0.00 | 94 | 1010.0 |
| 20260904054302 | 66 | 36 | 0.0 | 0.0 | 0.00 | 0.02 | 0.00 | 94 | 1010.0 |
| 20260904053756 | 66 | 36 | 0.0 | 0.0 | 0.00 | 0.02 | 0.00 | 94 | 1010.4 |
| 20260904053303 | 66 | 36 | 0.0 | 0.0 | 0.00 | 0.02 | 0.00 | 94 | 1010.4 |
| 20260904052807 | 66 | 36 | 0.0 | 0.0 | 0.00 | 0.02 | 0.00 | 94 | 1010.4 |
| 20260904052251 | 66 | 36 | 0.0 | 0.0 | 0.00 | 0.02 | 0.00 | 94 | 1010.5 |
| 20260904051800 | 66 | 36 | 0.0 | 0.0 | 0.00 | 0.02 | 0.00 | 94 | 1010.5 |
| 20260904051402 | 67 | 36 | 0.0 | 0.0 | 0.00 | 0.02 | 0.00 | 94 | 1010.5 |
| 20260904050755 | 67 | 36 | 0.0 | 0.0 | 0.00 | 0.02 | 0.00 | 94 | 1010.7 |
| 20260904050300 | 67 | 36 | 0.0 | 0.0 | 0.00 | 0.02 | 0.00 | 94 | 1010.7 |
| 20260904045748 | 67 | 36 | 0.0 | 0.0 | 0.00 | 0.02 | 0.00 | 94 | 1010.7 |
| 20260904045255 | 67 | 36 | 0.0 | 0.0 | 0.00 | 0.02 | 0.00 | 93 | 1010.6 |
| 20260904044759 | 67 | 36 | 0.0 | 0.0 | 0.00 | 0.02 | 0.00 | 93 | 1010.6 |
| 20260904044251 | 67 | 36 | 0.0 | 0.0 | 0.00 | 0.02 | 0.00 | 93 | 1010.6 |
| 20260904043759 | 67 | 36 | 0.0 | 0.0 | 0.00 | 0.02 | 0.00 | 93 | 1010.6 |
| 20260904043308 | 67 | 36 | 0.0 | 0.0 | 0.00 | 0.02 | 0.00 | 93 | 1010.6 |
| 20260904042750 | 68 | 36 | 0.0 | 0.0 | 0.00 | 0.02 | 0.00 | 93 | 1010.6 |
| 20260904042258 | 68 | 36 | 0.0 | 0.0 | 0.00 | 0.02 | 0.00 | 93 | 1010.5 |
| 20260904041750 | 68 | 36 | 0.0 | 0.0 | 0.00 | 0.02 | 0.00 | 93 | 1010.5 |
| 20260904041253 | 68 | 36 | 0.0 | 0.0 | 0.00 | 0.02 | 0.00 | 93 | 1010.5 |
| 20260904040802 | 68 | 36 | 0.0 | 0.0 | 0.00 | 0.02 | 0.00 | 93 | 1010.7 |
| 20260904040305 | 68 | 36 | 0.0 | 0.0 | 0.00 | 0.02 | 0.00 | 93 | 1010.7 |
| 20260904035749 | 68 | 36 | 0.0 | 0.0 | 0.00 | 0.02 | 0.00 | 93 | 1010.7 |
| 20260904035252 | 69 | 36 | 0.0 | 0.0 | 0.00 | 0.02 | 0.02 | 93 | 1010.9 |
| 20260904034801 | 69 | 36 | 0.0 | 0.0 | 0.00 | 0.02 | 0.02 | 93 | 1010.9 |
| 20260904034309 | 69 | 36 | 0.0 | 0.0 | 0.00 | 0.02 | 0.02 | 93 | 1010.9 |
| 20260904033810 | 69 | 36 | 0.0 | 0.0 | 0.00 | 0.02 | 0.02 | 93 | 1010.9 |
| 20260904033300 | 69 | 36 | 0.0 | 0.0 | 0.00 | 0.02 | 0.02 | 93 | 1010.9 |
| 20260904032806 | 69 | 36 | 0.0 | 1.0 | 0.00 | 0.02 | 0.02 | 93 | 1010.9 |
| 20260904032254 | 69 | 36 | 0.0 | 1.0 | 0.00 | 0.02 | 0.02 | 93 | 1010.9 |
| 20260904031823 | 69 | 36 | 0.0 | 1.0 | 0.00 | 0.02 | 0.02 | 93 | 1010.9 |
| 20260904031307 | 70 | 36 | 0.0 | 0.0 | 0.00 | 0.02 | 0.02 | 93 | 1010.9 |
| 20260904030757 | 70 | 36 | 0.0 | 1.0 | 0.00 | 0.02 | 0.02 | 93 | 1011.1 |
| 20260904030319 | 70 | 36 | 0.0 | 1.0 | 0.00 | 0.02 | 0.02 | 93 | 1011.1 |
| 20260904025805 | 70 | 36 | 0.0 | 0.0 | 0.00 | 0.02 | 0.02 | 92 | 1011.1 |
| 20260904025251 | 70 | 36 | 0.0 | 0.0 | 0.00 | 0.02 | 0.02 | 93 | 1011.0 |
| 20260904024815 | 70 | 36 | 0.0 | 0.0 | 0.00 | 0.02 | 0.02 | 93 | 1011.0 |
| 20260904024257 | 70 | 36 | 0.0 | 0.0 | 0.00 | 0.02 | 0.02 | 93 | 1011.0 |
| 20260904023758 | 70 | 36 | 0.0 | 0.0 | 0.00 | 0.02 | 0.02 | 92 | 1011.0 |
| 20260904023307 | 70 | 36 | 0.0 | 0.0 | 0.00 | 0.02 | 0.02 | 92 | 1011.0 |
| 20260904022802 | 71 | 36 | 0.0 | 1.0 | 0.00 | 0.02 | 0.02 | 92 | 1011.0 |
| 20260904022251 | 71 | 36 | 0.0 | 1.0 | 0.00 | 0.02 | 0.02 | 92 | 1011.1 |
| 20260904021758 | 71 | 36 | 0.0 | 1.0 | 0.00 | 0.02 | 0.02 | 92 | 1011.1 |
| 20260904021304 | 71 | 36 | 0.0 | 1.0 | 0.00 | 0.02 | 0.02 | 92 | 1011.1 |
| 20260904020753 | 71 | 36 | 0.0 | 1.0 | 0.00 | 0.02 | 0.02 | 92 | 1011.0 |
| 20260904020319 | 71 | 36 | 0.0 | 1.0 | 0.00 | 0.02 | 0.02 | 92 | 1011.0 |
| 20260904015805 | 71 | 36 | 0.0 | 0.0 | 0.00 | 0.02 | 0.02 | 91 | 1011.0 |
| 20260904015311 | 71 | 36 | 0.0 | 0.0 | 0.00 | 0.02 | 0.02 | 91 | 1011.4 |
| 20260904014755 | 72 | 36 | 0.0 | 0.0 | 0.00 | 0.02 | 0.02 | 91 | 1011.4 |
| 20260904014256 | 72 | 36 | 0.0 | 0.0 | 0.00 | 0.02 | 0.02 | 91 | 1011.4 |
| 20260904013803 | 72 | 36 | 0.0 | 0.0 | 0.00 | 0.02 | 0.02 | 91 | 1011.3 |
| 20260904013248 | 72 | 36 | 0.0 | 0.0 | 0.00 | 0.02 | 0.02 | 90 | 1011.3 |
| 20260904012755 | 72 | 36 | 0.0 | 0.0 | 0.00 | 0.02 | 0.02 | 90 | 1011.3 |
| 20260904012258 | 72 | 36 | 0.0 | 0.0 | 0.00 | 0.02 | 0.02 | 91 | 1011.4 |
| 20260904011800 | 72 | 36 | 0.0 | 0.0 | 0.00 | 0.02 | 0.02 | 91 | 1011.4 |
| 20260904011252 | 72 | 36 | 0.0 | 0.0 | 0.00 | 0.02 | 0.02 | 91 | 1011.4 |
| 20260904010801 | 72 | 36 | 0.0 | 0.0 | 0.00 | 0.02 | 0.02 | 90 | 1011.3 |
| 20260904010328 | 73 | 36 | 0.0 | 0.0 | 0.00 | 0.02 | 0.02 | 91 | 1011.3 |
| 20260904005750 | 73 | 36 | 0.0 | 0.0 | 0.00 | 0.02 | 0.02 | 91 | 1011.3 |
| 20260904005254 | 73 | 36 | 0.0 | 0.0 | 0.00 | 0.02 | 0.02 | 90 | 1011.1 |
| 20260904004806 | 73 | 36 | 0.0 | 0.0 | 0.00 | 0.02 | 0.02 | 90 | 1011.1 |
| 20260904004313 | 73 | 36 | 0.0 | 0.0 | 0.00 | 0.02 | 0.02 | 90 | 1011.1 |
| 20260904003818 | 73 | 36 | 0.0 | 0.0 | 0.00 | 0.02 | 0.02 | 90 | 1010.9 |
| 20260904003303 | 73 | 36 | 0.0 | 0.0 | 0.00 | 0.02 | 0.02 | 89 | 1010.9 |
| 20260904002750 | 73 | 36 | 0.0 | 0.0 | 0.00 | 0.02 | 0.02 | 89 | 1010.9 |
| 20260904002254 | 74 | 36 | 0.0 | 0.0 | 0.00 | 0.02 | 0.02 | 89 | 1010.7 |
| 20260904001802 | 74 | 36 | 0.0 | 0.0 | 0.00 | 0.02 | 0.02 | 88 | 1010.7 |
| 20260904001254 | 74 | 36 | 0.0 | 0.0 | 0.00 | 0.02 | 0.02 | 88 | 1010.7 |
| 20260904000802 | 74 | 36 | 0.0 | 0.0 | 0.00 | 0.02 | 0.02 | 88 | 1010.4 |
| 20260904000306 | 74 | 36 | 0.0 | 1.0 | 0.00 | 0.02 | 0.02 | 88 | 1010.4 |
| 20260903235753 | 74 | 36 | 0.0 | 1.0 | 0.00 | 0.02 | 0.02 | 88 | 1010.4 |
| 20260903235259 | 74 | 36 | 0.0 | 1.0 | 0.00 | 0.02 | 0.02 | 87 | 1010.2 |
| 20260903234750 | 75 | 36 | 0.0 | 2.0 | 0.00 | 0.02 | 0.02 | 87 | 1010.2 |
| 20260903234318 | 75 | 36 | 0.0 | 2.0 | 0.00 | 0.02 | 0.02 | 87 | 1010.2 |
| 20260903233806 | 75 | 36 | 0.0 | 0.0 | 0.00 | 0.02 | 0.02 | 86 | 1010.3 |
| 20260903233249 | 75 | 36 | 0.0 | 0.0 | 0.00 | 0.02 | 0.02 | 85 | 1010.3 |
| 20260903232755 | 76 | 36 | 0.0 | 0.0 | 0.00 | 0.02 | 0.02 | 86 | 1010.3 |
| 20260903232305 | 76 | 36 | 0.0 | 0.0 | 0.00 | 0.02 | 0.02 | 85 | 1010.1 |
| 20260903231811 | 76 | 36 | 0.0 | 0.0 | 0.00 | 0.02 | 0.02 | 85 | 1010.1 |
| 20260903231316 | 76 | 36 | 0.0 | 1.0 | 0.00 | 0.02 | 0.02 | 85 | 1010.1 |
| 20260903230757 | 76 | 36 | 0.0 | 1.0 | 0.00 | 0.02 | 0.02 | 85 | 1010.4 |
| 20260903230255 | 76 | 36 | 0.0 | 0.0 | 0.00 | 0.02 | 0.02 | 84 | 1010.4 |
| 20260903225750 | 77 | 36 | 0.0 | 1.0 | 0.00 | 0.02 | 0.02 | 84 | 1010.4 |
| 20260903225251 | 77 | 36 | 0.0 | 1.0 | 0.00 | 0.02 | 0.02 | 84 | 1010.5 |
| 20260903224817 | 77 | 36 | 0.0 | 0.0 | 0.00 | 0.02 | 0.02 | 84 | 1010.5 |
| 20260903224254 | 77 | 36 | 0.0 | 0.0 | 0.00 | 0.02 | 0.02 | 83 | 1010.5 |
| 20260903223756 | 77 | 36 | 0.0 | 1.0 | 0.00 | 0.02 | 0.02 | 83 | 1010.5 |
| 20260903223301 | 77 | 36 | 0.0 | 1.0 | 0.00 | 0.02 | 0.02 | 83 | 1010.5 |
| 20260903222804 | 77 | 36 | 0.0 | 1.0 | 0.00 | 0.02 | 0.02 | 83 | 1010.5 |
| 20260903222307 | 77 | 36 | 0.0 | 1.0 | 0.00 | 0.02 | 0.02 | 82 | 1010.4 |
| 20260903221805 | 77 | 36 | 0.0 | 1.0 | 0.00 | 0.02 | 0.02 | 82 | 1010.4 |
| 20260903221307 | 78 | 33 | 0.0 | 1.0 | 0.00 | 0.02 | 0.02 | 82 | 1010.4 |
| 20260903220805 | 78 | 33 | 0.0 | 1.0 | 0.00 | 0.02 | 0.02 | 82 | 1010.4 |
| 20260903220300 | 78 | 37 | 0.0 | 1.0 | 0.00 | 0.02 | 0.02 | 82 | 1010.4 |
| 20260903215748 | 78 | 37 | 0.0 | 1.0 | 0.00 | 0.02 | 0.02 | 82 | 1010.4 |
| 20260903215305 | 78 | 37 | 0.0 | 1.0 | 0.00 | 0.02 | 0.02 | 82 | 1010.7 |
| 20260903214749 | 78 | 37 | 0.0 | 2.0 | 0.00 | 0.02 | 0.02 | 82 | 1010.7 |
| 20260903214252 | 78 | 37 | 0.0 | 2.0 | 0.00 | 0.02 | 0.02 | 81 | 1010.7 |
| 20260903213755 | 78 | 49 | 0.0 | 2.0 | 0.00 | 0.02 | 0.02 | 81 | 1010.9 |
| 20260903213258 | 78 | 29 | 0.0 | 2.0 | 0.00 | 0.02 | 0.02 | 81 | 1010.9 |
| 20260903212759 | 78 | 29 | 0.0 | 2.0 | 0.00 | 0.02 | 0.02 | 81 | 1010.9 |
| 20260903212258 | 78 | 26 | 1.0 | 2.0 | 0.00 | 0.02 | 0.02 | 81 | 1010.8 |
| 20260903211805 | 78 | 25 | 1.0 | 2.0 | 0.00 | 0.02 | 0.02 | 80 | 1010.8 |
| 20260903211258 | 78 | 266 | 0.0 | 2.0 | 0.00 | 0.02 | 0.02 | 80 | 1010.8 |
| 20260903210819 | 78 | 267 | 1.0 | 2.0 | 0.00 | 0.02 | 0.02 | 80 | 1010.6 |
| 20260903210307 | 78 | 290 | 0.0 | 3.0 | 0.00 | 0.02 | 0.02 | 80 | 1010.6 |
| 20260903205750 | 78 | 290 | 1.0 | 3.0 | 0.00 | 0.02 | 0.02 | 79 | 1010.6 |
| 20260903205254 | 78 | 211 | 1.0 | 3.0 | 0.00 | 0.02 | 0.02 | 80 | 1010.8 |
| 20260903204817 | 78 | 283 | 1.0 | 3.0 | 0.00 | 0.02 | 0.02 | 80 | 1010.8 |
| 20260903204256 | 78 | 5 | 1.0 | 3.0 | 0.00 | 0.02 | 0.02 | 79 | 1010.8 |
| 20260903203800 | 78 | 278 | 0.0 | 1.0 | 0.00 | 0.02 | 0.02 | 81 | 1010.6 |
| 20260903203304 | 78 | 265 | 0.0 | 1.0 | 0.00 | 0.02 | 0.02 | 80 | 1010.6 |
| 20260903202806 | 78 | 265 | 0.0 | 1.0 | 0.00 | 0.02 | 0.02 | 81 | 1010.6 |
| 20260903202248 | 78 | 200 | 0.0 | 1.0 | 0.00 | 0.02 | 0.02 | 82 | 1010.6 |
| 20260903201811 | 77 | 200 | 0.0 | 1.0 | 0.00 | 0.02 | 0.02 | 80 | 1010.6 |
| 20260903201259 | 77 | 200 | 0.0 | 1.0 | 0.00 | 0.02 | 0.02 | 80 | 1010.6 |
| 20260903200802 | 77 | 200 | 0.0 | 1.0 | 0.00 | 0.02 | 0.02 | 80 | 1010.9 |
| 20260903200253 | 78 | 200 | 0.0 | 1.0 | 0.00 | 0.02 | 0.02 | 80 | 1010.9 |
| 20260903195753 | 78 | 200 | 0.0 | 2.0 | 0.00 | 0.02 | 0.02 | 79 | 1010.9 |
| 20260903195257 | 78 | 200 | 0.0 | 2.0 | 0.00 | 0.02 | 0.02 | 79 | 1011.0 |
| 20260903194756 | 78 | 200 | 0.0 | 0.0 | 0.00 | 0.02 | 0.02 | 79 | 1011.0 |
| 20260903194307 | 78 | 200 | 0.0 | 2.0 | 0.00 | 0.02 | 0.02 | 79 | 1011.0 |
| 20260903193751 | 78 | 203 | 0.0 | 1.0 | 0.00 | 0.02 | 0.02 | 78 | 1011.2 |
| 20260903193251 | 78 | 203 | 0.0 | 3.0 | 0.00 | 0.02 | 0.02 | 78 | 1011.2 |
| 20260903192749 | 78 | 203 | 0.0 | 3.0 | 0.00 | 0.02 | 0.02 | 78 | 1011.2 |
| 20260903192313 | 78 | 219 | 1.0 | 2.0 | 0.00 | 0.02 | 0.02 | 78 | 1011.2 |
| 20260903191754 | 78 | 229 | 0.0 | 3.0 | 0.00 | 0.02 | 0.02 | 79 | 1011.2 |
| 20260903191314 | 78 | 229 | 0.0 | 3.0 | 0.00 | 0.02 | 0.02 | 79 | 1011.2 |
| 20260903190755 | 78 | 225 | 0.0 | 2.0 | 0.00 | 0.02 | 0.02 | 81 | 1011.3 |
| 20260903190305 | 77 | 225 | 0.0 | 2.0 | 0.00 | 0.02 | 0.02 | 79 | 1011.3 |
| 20260903185803 | 77 | 225 | 0.0 | 2.0 | 0.00 | 0.02 | 0.02 | 79 | 1011.3 |
| 20260903185306 | 77 | 225 | 1.0 | 3.0 | 0.00 | 0.02 | 0.02 | 79 | 1011.4 |
| 20260903184803 | 77 | 225 | 1.0 | 3.0 | 0.00 | 0.02 | 0.02 | 78 | 1011.4 |
| 20260903184248 | 77 | 244 | 1.0 | 3.0 | 0.00 | 0.02 | 0.02 | 78 | 1011.4 |
| 20260903183825 | 77 | 250 | 1.0 | 3.0 | 0.00 | 0.02 | 0.02 | 79 | 1011.5 |
| 20260903183300 | 77 | 220 | 0.0 | 3.0 | 0.00 | 0.02 | 0.02 | 79 | 1011.5 |
| 20260903182756 | 77 | 220 | 0.0 | 3.0 | 0.00 | 0.02 | 0.02 | 80 | 1011.5 |
| 20260903182256 | 77 | 217 | 1.0 | 4.0 | 0.00 | 0.02 | 0.02 | 81 | 1011.6 |
| 20260903181818 | 77 | 217 | 0.0 | 4.0 | 0.00 | 0.02 | 0.02 | 79 | 1011.6 |
| 20260903181301 | 77 | 221 | 0.0 | 0.0 | 0.00 | 0.02 | 0.02 | 79 | 1011.6 |
| 20260903180826 | 77 | 221 | 0.0 | 0.0 | 0.00 | 0.02 | 0.02 | 79 | 1011.6 |
| 20260903180318 | 77 | 221 | 0.0 | 4.0 | 0.00 | 0.02 | 0.02 | 80 | 1011.6 |
| 20260903175817 | 77 | 221 | 1.0 | 4.0 | 0.00 | 0.02 | 0.02 | 79 | 1011.6 |
| 20260903175257 | 77 | 277 | 1.0 | 2.0 | 0.00 | 0.02 | 0.02 | 79 | 1011.7 |
| 20260903174754 | 77 | 266 | 0.0 | 3.0 | 0.00 | 0.02 | 0.02 | 79 | 1011.7 |
| 20260903174253 | 77 | 267 | 0.0 | 3.0 | 0.00 | 0.02 | 0.02 | 78 | 1011.7 |
| 20260903173812 | 77 | 270 | 1.0 | 3.0 | 0.00 | 0.02 | 0.02 | 79 | 1011.8 |
| 20260903173250 | 77 | 186 | 1.0 | 3.0 | 0.00 | 0.02 | 0.02 | 79 | 1011.8 |
| 20260903172749 | 77 | 184 | 1.0 | 4.0 | 0.00 | 0.02 | 0.02 | 80 | 1011.8 |
| 20260903172251 | 77 | 313 | 0.0 | 2.0 | 0.00 | 0.02 | 0.02 | 81 | 1012.0 |
| 20260903171759 | 76 | 262 | 0.0 | 3.0 | 0.00 | 0.02 | 0.02 | 82 | 1012.0 |
| 20260903171257 | 76 | 26 | 1.0 | 3.0 | 0.00 | 0.02 | 0.02 | 84 | 1012.0 |
| 20260903170751 | 75 | 234 | 1.0 | 3.0 | 0.00 | 0.02 | 0.02 | 84 | 1012.1 |
| 20260903170305 | 75 | 234 | 1.0 | 3.0 | 0.00 | 0.02 | 0.02 | 85 | 1012.1 |
| 20260903165759 | 74 | 232 | 1.0 | 3.0 | 0.00 | 0.02 | 0.02 | 86 | 1012.1 |
| 20260903165306 | 74 | 232 | 0.0 | 2.0 | 0.00 | 0.02 | 0.02 | 85 | 1012.3 |
| 20260903164823 | 74 | 235 | 0.0 | 2.0 | 0.00 | 0.02 | 0.02 | 87 | 1012.3 |
| 20260903164259 | 73 | 238 | 0.0 | 0.0 | 0.00 | 0.02 | 0.02 | 87 | 1012.3 |
| 20260903163815 | 73 | 108 | 0.0 | 0.0 | 0.00 | 0.02 | 0.02 | 88 | 1012.5 |
| 20260903163254 | 73 | 108 | 0.0 | 0.0 | 0.00 | 0.02 | 0.02 | 88 | 1012.5 |
| 20260903162756 | 72 | 109 | 0.0 | 0.0 | 0.00 | 0.02 | 0.02 | 88 | 1012.5 |
| 20260903162253 | 72 | 109 | 0.0 | 0.0 | 0.00 | 0.02 | 0.02 | 88 | 1012.5 |
| 20260903161754 | 72 | 109 | 0.0 | 2.0 | 0.00 | 0.02 | 0.02 | 89 | 1012.5 |
| 20260903161305 | 72 | 109 | 0.0 | 2.0 | 0.00 | 0.02 | 0.02 | 90 | 1012.5 |
| 20260903160802 | 72 | 83 | 0.0 | 2.0 | 0.00 | 0.02 | 0.02 | 91 | 1012.6 |